TimePST,TemperatureF,Dew PointF,Humidity,Sea Level PressureIn,VisibilityMPH,Wind Direction,Wind SpeedMPH,Gust SpeedMPH,PrecipitationIn,Events,Conditions,WindDirDegrees,DateUTC
12:53 AM,48.0,37.0,66,30.24,8.0,ENE,4.6,-,N/A,,Clear,70,2013-01-01 08:53:00
1:53 AM,46.9,35.1,63,30.25,10.0,NE,3.5,-,N/A,,Clear,50,2013-01-01 09:53:00
2:53 AM,46.9,36.0,66,30.25,9.0,Calm,Calm,-,N/A,,Clear,0,2013-01-01 10:53:00
4:53 AM,46.9,35.1,63,30.22,10.0,Calm,Calm,-,N/A,,Clear,0,2013-01-01 12:53:00
5:53 AM,46.0,35.1,66,30.22,10.0,Calm,Calm,-,N/A,,Clear,0,2013-01-01 13:53:00
6:53 AM,45.0,34.0,65,30.23,10.0,Calm,Calm,-,N/A,,Clear,0,2013-01-01 14:53:00
7:53 AM,46.9,34.0,61,30.22,10.0,Calm,Calm,-,N/A,,Scattered Clouds,0,2013-01-01 15:53:00
8:53 AM,51.1,35.1,54,30.23,10.0,Calm,Calm,-,N/A,,Scattered Clouds,0,2013-01-01 16:53:00
10:53 AM,55.0,32.0,42,30.21,10.0,East,3.5,-,N/A,,Overcast,100,2013-01-01 18:53:00
11:53 AM,60.1,30.9,33,30.17,10.0,Calm,Calm,-,N/A,,Overcast,0,2013-01-01 19:53:00
12:53 PM,61.0,26.1,26,30.14,10.0,East,6.9,-,N/A,,Mostly Cloudy,90,2013-01-01 20:53:00
1:53 PM,61.0,25.0,25,30.12,10.0,ESE,6.9,-,N/A,,Mostly Cloudy,110,2013-01-01 21:53:00
2:53 PM,61.0,26.1,26,30.11,10.0,ESE,5.8,-,N/A,,Mostly Cloudy,110,2013-01-01 22:53:00
3:53 PM,62.1,26.1,25,30.11,10.0,ESE,8.1,-,N/A,,Clear,110,2013-01-01 23:53:00
4:53 PM,60.1,27.0,28,30.11,10.0,Calm,Calm,-,N/A,,Clear,0,2013-01-02 00:53:00
5:53 PM,55.9,39.9,55,30.12,10.0,WNW,3.5,-,N/A,,Mostly Cloudy,290,2013-01-02 01:53:00
6:53 PM,54.0,41.0,62,30.12,10.0,Calm,Calm,-,N/A,,Mostly Cloudy,0,2013-01-02 02:53:00
7:53 PM,54.0,42.1,64,30.14,10.0,Calm,Calm,-,N/A,,Clear,0,2013-01-02 03:53:00
8:53 PM,53.1,43.0,69,30.15,10.0,Calm,Calm,-,N/A,,Clear,0,2013-01-02 04:53:00
9:53 PM,51.1,41.0,68,30.16,10.0,Calm,Calm,-,N/A,,Clear,0,2013-01-02 05:53:00
10:53 PM,51.1,36.0,56,30.16,10.0,Calm,Calm,-,N/A,,Clear,0,2013-01-02 06:53:00
11:53 PM,48.9,34.0,56,30.15,10.0,Calm,Calm,-,N/A,,Clear,0,2013-01-02 07:53:00